�������l�o���
Date,Time,MP-1(��Sv/h),MP-2(��Sv/h),MP-3(��Sv/h),MP-4(��Sv/h),MP-5(��Sv/h),MP-6(��Sv/h),MP-7(��Sv/h),MP-8(��Sv/h),����,����(m/s),���J
2020/11/01,00:00,0.666,0.962,0.607,1.183,0.852,0.382,0.672,0.635,��쐼,5.3,��
2020/11/01,00:10,0.665,0.963,0.605,1.186,0.851,0.385,0.672,0.634,��쐼,4.9,��
2020/11/01,00:20,0.665,0.963,0.608,1.183,0.852,0.383,0.671,0.633,�쐼,4.9,��
2020/11/01,00:30,0.666,0.962,0.607,1.185,0.853,0.383,0.672,0.632,�쐼,4.7,��
2020/11/01,00:40,0.664,0.963,0.606,1.182,0.854,0.382,0.672,0.634,�쐼,4.9,��
2020/11/01,00:50,0.665,0.963,0.606,1.182,0.853,0.383,0.671,0.633,��쐼,4.8,��
2020/11/01,01:00,0.665,0.964,0.607,1.184,0.852,0.383,0.673,0.632,�쐼,4.7,��
2020/11/01,01:10,0.664,0.962,0.605,1.185,0.852,0.383,0.671,0.634,�쐼,4.5,��
2020/11/01,01:20,0.664,0.963,0.607,1.185,0.851,0.383,0.671,0.633,�쐼,4.3,��
2020/11/01,01:30,0.663,0.960,0.605,1.185,0.854,0.382,0.669,0.636,��쐼,4.8,��
2020/11/01,01:40,0.665,0.961,0.607,1.184,0.849,0.382,0.671,0.633,��쐼,5.5,��
2020/11/01,01:50,0.665,0.962,0.606,1.183,0.851,0.383,0.672,0.633,��쐼,6.0,��
2020/11/01,02:00,0.665,0.962,0.607,1.184,0.849,0.382,0.671,0.633,��,5.7,��
2020/11/01,02:10,0.663,0.962,0.607,1.185,0.852,0.383,0.673,0.635,��쐼,6.4,��
2020/11/01,02:20,0.665,0.963,0.607,1.182,0.851,0.384,0.671,0.632,��쐼,6.5,��
2020/11/01,02:30,0.664,0.961,0.608,1.184,0.852,0.383,0.671,0.635,��쐼,6.2,��
2020/11/01,02:40,0.665,0.962,0.607,1.180,0.849,0.382,0.671,0.634,��쐼,5.9,��
2020/11/01,02:50,0.665,0.962,0.606,1.182,0.851,0.384,0.670,0.633,��쐼,6.0,��
2020/11/01,03:00,0.662,0.962,0.606,1.183,0.851,0.382,0.672,0.633,��쐼,5.9,��
2020/11/01,03:10,0.666,0.961,0.607,1.183,0.850,0.383,0.670,0.633,��쐼,5.8,��
2020/11/01,03:20,0.664,0.960,0.607,1.182,0.851,0.383,0.672,0.634,��쐼,6.0,��
2020/11/01,03:30,0.666,0.962,0.606,1.182,0.850,0.384,0.672,0.633,��쐼,6.1,��
2020/11/01,03:40,0.664,0.961,0.606,1.183,0.850,0.384,0.672,0.632,��쐼,5.7,��
2020/11/01,03:50,0.664,0.961,0.605,1.182,0.853,0.383,0.672,0.633,��쐼,6.4,��
2020/11/01,04:00,0.665,0.961,0.605,1.182,0.851,0.383,0.671,0.633,��쐼,5.7,��
2020/11/01,04:10,0.665,0.961,0.605,1.182,0.851,0.384,0.671,0.633,��쐼,4.9,��
2020/11/01,04:20,0.665,0.961,0.607,1.183,0.852,0.384,0.673,0.634,��쐼,4.5,��
2020/11/01,04:30,0.665,0.960,0.606,1.181,0.851,0.384,0.671,0.633,�쐼,4.0,��
2020/11/01,04:40,0.665,0.961,0.606,1.185,0.850,0.384,0.673,0.632,�쐼,4.9,��
2020/11/01,04:50,0.665,0.963,0.607,1.183,0.852,0.384,0.671,0.634,��쐼,5.2,��
2020/11/01,05:00,0.662,0.962,0.606,1.185,0.851,0.383,0.670,0.634,��쐼,5.6,��
2020/11/01,05:10,0.664,0.961,0.607,1.182,0.849,0.383,0.671,0.633,��쐼,5.1,��
2020/11/01,05:20,0.664,0.960,0.606,1.181,0.850,0.385,0.672,0.633,��,5.8,��
2020/11/01,05:30,0.666,0.961,0.607,1.183,0.851,0.383,0.670,0.633,��,5.9,��
2020/11/01,05:40,0.665,0.961,0.606,1.182,0.852,0.385,0.672,0.634,��,6.3,��
2020/11/01,05:50,0.664,0.961,0.606,1.182,0.850,0.385,0.672,0.635,��,5.7,��
2020/11/01,06:00,0.666,0.960,0.609,1.183,0.847,0.383,0.670,0.634,��,5.5,��
2020/11/01,06:10,0.665,0.958,0.608,1.183,0.850,0.384,0.672,0.632,��쐼,5.5,��
2020/11/01,06:20,0.665,0.959,0.606,1.183,0.850,0.384,0.673,0.635,��,5.1,��
2020/11/01,06:30,0.665,0.959,0.607,1.181,0.850,0.384,0.671,0.632,��쓌,4.8,��
2020/11/01,06:40,0.664,0.959,0.607,1.184,0.849,0.383,0.672,0.633,��,5.2,��
2020/11/01,06:50,0.664,0.959,0.607,1.184,0.850,0.383,0.671,0.633,��쐼,6.2,��
2020/11/01,07:00,0.665,0.962,0.606,1.184,0.852,0.383,0.672,0.634,��쐼,5.6,��
2020/11/01,07:10,0.665,0.961,0.606,1.184,0.852,0.383,0.672,0.634,��쐼,6.4,��
2020/11/01,07:20,0.665,0.962,0.607,1.184,0.851,0.383,0.672,0.636,��,5.4,��
2020/11/01,07:30,0.665,0.965,0.608,1.184,0.850,0.384,0.673,0.632,��,4.9,��
2020/11/01,07:40,0.666,0.964,0.607,1.187,0.850,0.383,0.673,0.634,��쓌,6.6,��
2020/11/01,07:50,0.668,0.963,0.607,1.187,0.848,0.383,0.673,0.633,��쓌,6.4,��
2020/11/01,08:00,0.668,0.964,0.607,1.185,0.852,0.385,0.671,0.633,��,7.6,��
2020/11/01,08:10,0.667,0.964,0.608,1.183,0.851,0.384,0.673,0.633,��,8.7,��
2020/11/01,08:20,0.668,0.963,0.608,1.188,0.852,0.385,0.674,0.634,��,7.2,��
2020/11/01,08:30,0.669,0.962,0.608,1.186,0.854,0.385,0.673,0.634,��,5.7,��
2020/11/01,08:40,0.669,0.965,0.609,1.185,0.853,0.385,0.673,0.635,��,3.4,��
2020/11/01,08:50,0.667,0.964,0.609,1.184,0.854,0.385,0.672,0.633,��쐼,2.0,��
2020/11/01,09:00,0.667,0.966,0.609,1.183,0.853,0.386,0.671,0.637,��,2.5,��
2020/11/01,09:10,0.668,0.962,0.608,1.186,0.853,0.386,0.672,0.636,��,3.7,��
2020/11/01,09:20,0.669,0.963,0.609,1.184,0.854,0.384,0.673,0.634,��쓌,4.5,��
2020/11/01,09:30,0.668,0.963,0.608,1.185,0.852,0.385,0.672,0.634,��쓌,4.6,��
2020/11/01,09:40,0.667,0.964,0.609,1.185,0.853,0.385,0.671,0.634,��,4.7,��
2020/11/01,09:50,0.667,0.963,0.608,1.184,0.854,0.385,0.671,0.636,��,5.8,��
2020/11/01,10:00,0.666,0.961,0.610,1.187,0.853,0.384,0.672,0.635,��쓌,6.7,��
2020/11/01,10:10,0.668,0.964,0.610,1.188,0.854,0.384,0.672,0.637,��쓌,8.9,��
2020/11/01,10:20,0.669,0.964,0.608,1.186,0.852,0.383,0.673,0.633,��쓌,8.5,��
2020/11/01,10:30,0.667,0.965,0.606,1.188,0.851,0.383,0.673,0.637,��쓌,9.9,��
2020/11/01,10:40,0.668,0.966,0.606,1.187,0.853,0.385,0.674,0.634,��,8.3,��
2020/11/01,10:50,0.669,0.969,0.607,1.184,0.854,0.383,0.674,0.633,��,8.5,��
2020/11/01,11:00,0.668,0.966,0.606,1.187,0.852,0.383,0.673,0.634,��,8.9,��
2020/11/01,11:10,0.666,0.967,0.609,1.186,0.852,0.383,0.673,0.634,��,9.5,��
2020/11/01,11:20,0.669,0.965,0.606,1.184,0.855,0.385,0.674,0.634,��,9.2,��
2020/11/01,11:30,0.667,0.966,0.607,1.186,0.855,0.383,0.672,0.634,��,8.5,��
2020/11/01,11:40,0.669,0.968,0.608,1.186,0.855,0.385,0.672,0.634,��쓌,9.4,��
2020/11/01,11:50,0.669,0.969,0.609,1.186,0.853,0.383,0.673,0.636,��,10.0,��
2020/11/01,12:00,0.669,0.970,0.607,1.185,0.856,0.384,0.674,0.633,��,7.7,��
2020/11/01,12:10,0.669,0.969,0.607,1.187,0.854,0.382,0.674,0.633,��쓌,9.5,��
2020/11/01,12:20,0.668,0.968,0.608,1.189,0.856,0.385,0.673,0.632,��쓌,10.0,��
2020/11/01,12:30,0.668,0.970,0.607,1.186,0.855,0.384,0.674,0.631,��쓌,9.9,��
2020/11/01,12:40,0.669,0.969,0.608,1.186,0.853,0.387,0.674,0.632,��쓌,9.6,��
2020/11/01,12:50,0.669,0.966,0.606,1.189,0.854,0.385,0.674,0.633,��쓌,9.7,��
2020/11/01,13:00,0.667,0.968,0.607,1.188,0.853,0.386,0.673,0.633,��쓌,8.6,��
2020/11/01,13:10,0.670,0.968,0.609,1.186,0.854,0.383,0.674,0.632,��쓌,10.5,��
2020/11/01,13:20,0.668,0.967,0.608,1.189,0.853,0.385,0.672,0.632,��쓌,10.2,��
2020/11/01,13:30,0.669,0.969,0.608,1.188,0.854,0.386,0.673,0.633,��쓌,10.2,��
2020/11/01,13:40,0.671,0.971,0.608,1.189,0.854,0.387,0.672,0.633,��쓌,9.9,��
2020/11/01,13:50,0.668,0.970,0.608,1.187,0.855,0.386,0.672,0.631,��쓌,10.9,��
2020/11/01,14:00,0.669,0.970,0.607,1.186,0.854,0.385,0.673,0.633,��쓌,9.8,��
2020/11/01,14:10,0.669,0.969,0.607,1.188,0.853,0.385,0.673,0.632,��쓌,9.1,��
2020/11/01,14:20,0.669,0.969,0.606,1.186,0.854,0.384,0.673,0.632,��쓌,9.8,��
2020/11/01,14:30,0.667,0.969,0.608,1.188,0.853,0.386,0.672,0.634,��쓌,10.3,��
2020/11/01,14:40,0.668,0.969,0.606,1.188,0.855,0.384,0.673,0.633,��쓌,10.7,��
2020/11/01,14:50,0.669,0.970,0.608,1.187,0.854,0.385,0.672,0.632,��쓌,10.0,��
2020/11/01,15:00,0.668,0.971,0.608,1.188,0.855,0.385,0.673,0.632,��쓌,9.0,��
2020/11/01,15:10,0.669,0.968,0.608,1.187,0.858,0.385,0.672,0.633,��쓌,8.9,��
2020/11/01,15:20,0.668,0.970,0.608,1.187,0.853,0.385,0.673,0.635,��쓌,8.8,��
2020/11/01,15:30,0.668,0.968,0.608,1.187,0.854,0.386,0.672,0.635,��,7.5,��
2020/11/01,15:40,0.669,0.971,0.609,1.187,0.857,0.386,0.673,0.634,��쓌,8.4,��
2020/11/01,15:50,0.671,0.967,0.611,1.189,0.854,0.387,0.671,0.633,��쓌,9.1,��
2020/11/01,16:00,0.669,0.973,0.610,1.189,0.853,0.386,0.671,0.633,��,7.8,��
2020/11/01,16:10,0.668,0.971,0.609,1.185,0.855,0.387,0.672,0.634,��쓌,9.5,��
2020/11/01,16:20,0.671,0.972,0.610,1.186,0.854,0.387,0.672,0.634,��쓌,8.9,��
2020/11/01,16:30,0.674,0.974,0.611,1.187,0.853,0.385,0.672,0.634,��,8.0,��
2020/11/01,16:40,0.670,0.972,0.611,1.188,0.858,0.386,0.673,0.636,��,7.5,��
2020/11/01,16:50,0.672,0.973,0.612,1.189,0.855,0.388,0.672,0.635,��,7.8,��
2020/11/01,17:00,0.670,0.974,0.612,1.187,0.855,0.386,0.673,0.637,��,6.7,��
2020/11/01,17:10,0.670,0.973,0.611,1.187,0.857,0.386,0.673,0.636,��,6.5,��
2020/11/01,17:20,0.672,0.973,0.611,1.185,0.856,0.387,0.673,0.636,��,7.1,��
2020/11/01,17:30,0.671,0.972,0.612,1.187,0.856,0.388,0.674,0.636,��,7.1,��
2020/11/01,17:40,0.672,0.972,0.610,1.186,0.860,0.388,0.674,0.635,��,6.7,��
2020/11/01,17:50,0.673,0.973,0.609,1.190,0.858,0.388,0.675,0.636,��,5.4,��
2020/11/01,18:00,0.669,0.972,0.612,1.187,0.857,0.386,0.673,0.636,��,5.7,��
2020/11/01,18:10,0.671,0.974,0.610,1.189,0.856,0.387,0.674,0.636,��쐼,5.3,��
2020/11/01,18:20,0.671,0.972,0.610,1.187,0.858,0.385,0.675,0.635,��쐼,5.6,��
2020/11/01,18:30,0.671,0.971,0.610,1.188,0.859,0.386,0.674,0.636,��쐼,3.6,��
2020/11/01,18:40,0.672,0.972,0.610,1.188,0.860,0.387,0.674,0.635,��쐼,2.3,��
2020/11/01,18:50,0.673,0.972,0.609,1.188,0.858,0.386,0.673,0.635,��쐼,2.9,��
2020/11/01,19:00,0.672,0.972,0.612,1.189,0.858,0.387,0.674,0.636,�쐼,2.6,��
2020/11/01,19:10,0.670,0.973,0.611,1.187,0.857,0.387,0.674,0.634,�쐼,2.0,��
2020/11/01,19:20,0.672,0.972,0.610,1.186,0.858,0.385,0.674,0.636,���쐼,3.1,��
2020/11/01,19:30,0.671,0.972,0.610,1.187,0.859,0.387,0.672,0.636,���쐼,3.9,��
2020/11/01,19:40,0.670,0.972,0.611,1.189,0.856,0.386,0.673,0.635,�쐼,4.2,��
2020/11/01,19:50,0.671,0.970,0.610,1.188,0.856,0.387,0.672,0.635,�쐼,5.4,��
2020/11/01,20:00,0.671,0.971,0.609,1.188,0.858,0.386,0.672,0.635,�쐼,6.8,��
2020/11/01,20:10,0.669,0.971,0.610,1.187,0.860,0.385,0.671,0.636,�쐼,6.1,��
2020/11/01,20:20,0.671,0.970,0.609,1.188,0.857,0.387,0.675,0.636,�쐼,6.8,��
2020/11/01,20:30,0.670,0.971,0.611,1.186,0.857,0.385,0.673,0.636,�쐼,6.6,��
2020/11/01,20:40,0.670,0.971,0.611,1.188,0.856,0.386,0.674,0.636,��쐼,6.0,��
2020/11/01,20:50,0.672,0.968,0.612,1.190,0.858,0.385,0.673,0.636,��쐼,5.3,��
2020/11/01,21:00,0.672,0.970,0.610,1.189,0.856,0.387,0.673,0.635,��쐼,4.0,��
2020/11/01,21:10,0.671,0.969,0.611,1.188,0.858,0.386,0.674,0.636,��,3.5,��
2020/11/01,21:20,0.672,0.969,0.610,1.190,0.858,0.385,0.673,0.635,��쓌,3.2,��
2020/11/01,21:30,0.671,0.969,0.609,1.188,0.854,0.385,0.672,0.637,��쓌,4.1,��
2020/11/01,21:40,0.668,0.970,0.610,1.188,0.858,0.385,0.674,0.635,��쓌,3.7,��
2020/11/01,21:50,0.671,0.970,0.612,1.190,0.857,0.384,0.675,0.636,��쓌,2.8,��
2020/11/01,22:00,0.671,0.970,0.611,1.187,0.855,0.385,0.674,0.635,��쓌,3.2,��
2020/11/01,22:10,0.671,0.967,0.612,1.189,0.856,0.387,0.674,0.637,��쓌,3.2,��
2020/11/01,22:20,0.671,0.968,0.609,1.187,0.857,0.386,0.673,0.637,��,2.8,��
2020/11/01,22:30,0.672,0.970,0.610,1.188,0.857,0.385,0.675,0.636,��쓌,3.3,��
2020/11/01,22:40,0.672,0.970,0.611,1.188,0.857,0.386,0.674,0.635,��,2.6,��
2020/11/01,22:50,0.672,0.970,0.609,1.188,0.855,0.387,0.673,0.635,��,3.0,��
2020/11/01,23:00,0.672,0.969,0.609,1.187,0.859,0.387,0.673,0.636,��쐼,3.1,��
2020/11/01,23:10,0.670,0.970,0.611,1.189,0.857,0.385,0.675,0.635,��쐼,3.1,��
2020/11/01,23:20,0.670,0.968,0.609,1.189,0.858,0.386,0.673,0.635,��,1.9,��
2020/11/01,23:30,0.671,0.969,0.610,1.188,0.857,0.386,0.672,0.635,��쐼,1.7,��
2020/11/01,23:40,0.670,0.968,0.610,1.186,0.859,0.386,0.674,0.635,��쐼,1.5,��
2020/11/01,23:50,0.670,0.969,0.608,1.187,0.857,0.387,0.675,0.636,��쐼,1.7,��
